| time (UTC) | temp F | wind direction | speed MPH | gust MPH | rain 1hr in | rain 24hr in | rain mn in | humidity % | barometer mb |
| 20260504100322 | 38 | 329 | 0.0 | 0.0 | 0.00 | 0.00 | 0.00 | 86 | 1009.7 |
| 20260504081813 | 38 | 340 | 0.0 | 0.0 | 0.00 | 0.00 | 0.00 | 85 | 1009.8 |
| 20260504081332 | 38 | 340 | 0.0 | 0.0 | 0.00 | 0.00 | 0.00 | 85 | 1009.8 |
| 20260504080832 | 38 | 340 | 0.0 | 0.0 | 0.00 | 0.00 | 0.00 | 85 | 1009.8 |
| 20260504080331 | 38 | 340 | 0.0 | 0.0 | 0.00 | 0.00 | 0.00 | 85 | 1009.8 |
| 20260504070314 | 40 | 343 | 0.0 | 0.0 | 0.00 | 0.00 | 0.00 | 82 | 1009.7 |
| 20260504050339 | 47 | 215 | 0.0 | 0.0 | 0.00 | 0.00 | 0.00 | 73 | 1009.7 |
| 20260504045816 | 47 | 215 | 0.0 | 0.0 | 0.00 | 0.00 | 0.00 | 73 | 1009.7 |
| 20260504045314 | 47 | 215 | 0.0 | 0.0 | 0.00 | 0.00 | 0.00 | 72 | 1009.7 |
| 20260504044814 | 47 | 215 | 0.0 | 0.0 | 0.00 | 0.00 | 0.00 | 72 | 1009.8 |
| 20260504044313 | 47 | 215 | 0.0 | 0.0 | 0.00 | 0.00 | 0.00 | 71 | 1009.7 |
| 20260504043831 | 47 | 215 | 0.0 | 0.0 | 0.00 | 0.00 | 0.00 | 70 | 1009.8 |
| 20260504043330 | 48 | 215 | 0.0 | 0.0 | 0.00 | 0.00 | 0.00 | 69 | 1009.8 |
| 20260504042828 | 48 | 215 | 0.0 | 0.0 | 0.00 | 0.00 | 0.00 | 68 | 1009.8 |
| 20260504042325 | 49 | 215 | 0.0 | 0.0 | 0.00 | 0.00 | 0.00 | 66 | 1009.8 |
| 20260504041824 | 49 | 215 | 0.0 | 0.0 | 0.00 | 0.00 | 0.00 | 64 | 1009.9 |
| 20260504041324 | 49 | 215 | 0.0 | 0.0 | 0.00 | 0.00 | 0.00 | 63 | 1009.9 |
| 20260504040838 | 50 | 215 | 0.0 | 0.0 | 0.00 | 0.00 | 0.00 | 61 | 1010.0 |
| 20260504040318 | 50 | 215 | 0.0 | 0.0 | 0.00 | 0.00 | 0.00 | 60 | 1010.0 |
| 20260504035816 | 50 | 215 | 0.0 | 0.0 | 0.00 | 0.00 | 0.00 | 59 | 1010.0 |
| 20260504035316 | 50 | 215 | 0.0 | 0.0 | 0.00 | 0.00 | 0.00 | 58 | 1010.0 |
| 20260504034835 | 50 | 215 | 0.0 | 0.0 | 0.00 | 0.00 | 0.00 | 58 | 1010.2 |
| 20260504034313 | 50 | 215 | 0.0 | 0.0 | 0.00 | 0.00 | 0.00 | 58 | 1010.2 |
| 20260504033813 | 50 | 271 | 0.0 | 0.0 | 0.00 | 0.00 | 0.00 | 58 | 1010.3 |
| 20260504033313 | 50 | 254 | 0.0 | 0.0 | 0.00 | 0.00 | 0.00 | 58 | 1010.4 |
| 20260504032813 | 50 | 243 | 0.0 | 0.0 | 0.00 | 0.00 | 0.00 | 59 | 1010.4 |
| 20260504032332 | 50 | 228 | 0.0 | 0.0 | 0.00 | 0.00 | 0.00 | 59 | 1010.5 |
| 20260504031832 | 50 | 256 | 0.0 | 0.0 | 0.00 | 0.00 | 0.00 | 60 | 1010.5 |
| 20260504031330 | 50 | 217 | 0.0 | 0.0 | 0.00 | 0.00 | 0.00 | 61 | 1010.3 |
| 20260504030830 | 50 | 328 | 0.0 | 0.0 | 0.00 | 0.00 | 0.00 | 60 | 1010.5 |
| 20260504030329 | 50 | 268 | 0.0 | 0.0 | 0.00 | 0.00 | 0.00 | 59 | 1010.4 |
| 20260504025825 | 50 | 237 | 0.0 | 0.0 | 0.00 | 0.00 | 0.00 | 58 | 1010.3 |
| 20260504025324 | 50 | 217 | 0.0 | 0.0 | 0.00 | 0.00 | 0.00 | 58 | 1010.3 |
| 20260504024823 | 50 | 240 | 0.0 | 0.0 | 0.00 | 0.00 | 0.00 | 57 | 1010.3 |
| 20260504024342 | 50 | 257 | 0.0 | 0.0 | 0.00 | 0.00 | 0.00 | 57 | 1010.4 |
| 20260504023839 | 50 | 247 | 0.0 | 0.0 | 0.00 | 0.00 | 0.00 | 58 | 1010.5 |
| 20260504023318 | 50 | 251 | 0.0 | 0.0 | 0.00 | 0.00 | 0.00 | 58 | 1010.6 |
| 20260504022838 | 50 | 258 | 0.0 | 0.0 | 0.00 | 0.00 | 0.00 | 58 | 1010.6 |
| 20260504022336 | 50 | 270 | 0.0 | 1.0 | 0.00 | 0.00 | 0.00 | 58 | 1010.6 |
| 20260504021834 | 50 | 206 | 0.0 | 1.0 | 0.00 | 0.00 | 0.00 | 58 | 1010.6 |
| 20260504021354 | 50 | 232 | 0.0 | 0.0 | 0.00 | 0.00 | 0.00 | 58 | 1010.6 |
| 20260504020832 | 50 | 280 | 0.0 | 0.0 | 0.00 | 0.00 | 0.00 | 59 | 1010.6 |
| 20260504020332 | 49 | 256 | 0.0 | 2.0 | 0.00 | 0.00 | 0.00 | 60 | 1010.6 |
| 20260504015850 | 47 | 240 | 0.0 | 2.0 | 0.00 | 0.00 | 0.00 | 64 | 1010.6 |
| 20260504015329 | 46 | 291 | 0.0 | 1.0 | 0.00 | 0.00 | 0.00 | 66 | 1010.6 |
| 20260504014828 | 46 | 250 | 0.0 | 1.0 | 0.00 | 0.00 | 0.00 | 68 | 1010.5 |
| 20260504014325 | 47 | 222 | 0.0 | 0.0 | 0.00 | 0.00 | 0.00 | 68 | 1010.5 |
| 20260504013826 | 47 | 222 | 0.0 | 0.0 | 0.00 | 0.00 | 0.00 | 67 | 1010.4 |
| 20260504013345 | 47 | 222 | 0.0 | 0.0 | 0.00 | 0.00 | 0.00 | 67 | 1010.3 |
| 20260504012821 | 46 | 222 | 0.0 | 0.0 | 0.00 | 0.00 | 0.00 | 68 | 1010.3 |
| 20260504012320 | 46 | 222 | 0.0 | 0.0 | 0.00 | 0.00 | 0.00 | 69 | 1010.3 |
| 20260504011819 | 45 | 206 | 0.0 | 0.0 | 0.00 | 0.00 | 0.00 | 71 | 1010.2 |
| 20260504011339 | 45 | 313 | 0.0 | 0.0 | 0.00 | 0.00 | 0.00 | 71 | 1010.3 |
| 20260504010836 | 45 | 320 | 0.0 | 0.0 | 0.00 | 0.00 | 0.00 | 71 | 1010.4 |
| 20260504010352 | 45 | 320 | 0.0 | 0.0 | 0.00 | 0.00 | 0.00 | 70 | 1010.3 |
| 20260504005850 | 45 | 320 | 0.0 | 0.0 | 0.00 | 0.00 | 0.00 | 70 | 1010.3 |
| 20260504005347 | 45 | 272 | 0.0 | 0.0 | 0.00 | 0.00 | 0.00 | 70 | 1010.2 |
| 20260504004824 | 45 | 272 | 0.0 | 0.0 | 0.00 | 0.00 | 0.00 | 70 | 1010.1 |
| 20260504004321 | 45 | 272 | 0.0 | 0.0 | 0.00 | 0.00 | 0.00 | 69 | 1010.2 |
| 20260504003819 | 45 | 272 | 0.0 | 0.0 | 0.00 | 0.00 | 0.00 | 68 | 1010.0 |
| 20260504003320 | 45 | 272 | 0.0 | 0.0 | 0.00 | 0.00 | 0.00 | 68 | 1009.9 |
| 20260504002818 | 45 | 272 | 0.0 | 0.0 | 0.00 | 0.00 | 0.00 | 67 | 1009.9 |
| 20260504002317 | 46 | 271 | 0.0 | 0.0 | 0.00 | 0.00 | 0.00 | 66 | 1009.8 |
| 20260504001815 | 46 | 262 | 0.0 | 0.0 | 0.00 | 0.00 | 0.00 | 64 | 1009.7 |
| 20260504001313 | 46 | 262 | 0.0 | 0.0 | 0.00 | 0.00 | 0.00 | 63 | 1009.6 |
| 20260504000813 | 47 | 262 | 0.0 | 0.0 | 0.00 | 0.00 | 0.00 | 62 | 1009.6 |
| 20260504000333 | 47 | 262 | 0.0 | 0.0 | 0.00 | 0.00 | 0.00 | 61 | 1009.6 |
| 20260503235831 | 48 | 262 | 0.0 | 0.0 | 0.00 | 0.00 | 0.00 | 60 | 1009.5 |
| 20260503235331 | 49 | 262 | 0.0 | 0.0 | 0.00 | 0.00 | 0.00 | 58 | 1009.5 |
| 20260503234848 | 49 | 262 | 0.0 | 0.0 | 0.00 | 0.00 | 0.00 | 56 | 1009.4 |
| 20260503234346 | 50 | 262 | 0.0 | 0.0 | 0.00 | 0.00 | 0.00 | 55 | 1009.3 |
| 20260503233824 | 51 | 262 | 0.0 | 0.0 | 0.00 | 0.00 | 0.00 | 54 | 1009.2 |
| 20260503233322 | 51 | 262 | 0.0 | 0.0 | 0.00 | 0.00 | 0.00 | 52 | 1009.3 |
| 20260503232840 | 52 | 262 | 0.0 | 0.0 | 0.00 | 0.00 | 0.00 | 51 | 1009.3 |
| 20260503232317 | 52 | 256 | 0.0 | 0.0 | 0.00 | 0.00 | 0.00 | 50 | 1009.3 |
| 20260503231836 | 52 | 255 | 0.0 | 0.0 | 0.00 | 0.00 | 0.00 | 49 | 1009.2 |
| 20260503231314 | 52 | 250 | 0.0 | 0.0 | 0.00 | 0.00 | 0.00 | 50 | 1009.3 |
| 20260503230832 | 52 | 266 | 0.0 | 0.0 | 0.00 | 0.00 | 0.00 | 49 | 1009.2 |
| 20260503230332 | 52 | 201 | 0.0 | 0.0 | 0.00 | 0.00 | 0.00 | 49 | 1009.3 |
| 20260503225827 | 52 | 232 | 0.0 | 0.0 | 0.00 | 0.00 | 0.00 | 49 | 1009.4 |
| 20260503225346 | 52 | 210 | 0.0 | 0.0 | 0.00 | 0.00 | 0.00 | 49 | 1009.4 |
| 20260503224825 | 52 | 247 | 0.0 | 1.0 | 0.00 | 0.00 | 0.00 | 50 | 1009.4 |
| 20260503224323 | 52 | 349 | 0.0 | 1.0 | 0.00 | 0.00 | 0.00 | 50 | 1009.4 |
| 20260503223820 | 52 | 238 | 0.0 | 5.0 | 0.00 | 0.00 | 0.00 | 51 | 1009.5 |
| 20260503223319 | 52 | 285 | 0.0 | 5.0 | 0.00 | 0.00 | 0.00 | 50 | 1009.6 |
| 20260503222836 | 52 | 349 | 0.0 | 0.0 | 0.00 | 0.00 | 0.00 | 50 | 1009.6 |
| 20260503222314 | 52 | 234 | 0.0 | 0.0 | 0.00 | 0.00 | 0.00 | 50 | 1009.6 |
| 20260503221813 | 52 | 260 | 0.0 | 9.0 | 0.00 | 0.00 | 0.00 | 50 | 1009.5 |
| 20260503221332 | 52 | 274 | 0.0 | 11.0 | 0.00 | 0.00 | 0.00 | 50 | 1009.6 |
| 20260503220832 | 52 | 208 | 0.0 | 1.0 | 0.00 | 0.00 | 0.00 | 50 | 1009.6 |
| 20260503220348 | 52 | 217 | 0.0 | 9.0 | 0.00 | 0.00 | 0.00 | 49 | 1009.6 |
| 20260503215845 | 52 | 280 | 0.0 | 9.0 | 0.00 | 0.00 | 0.00 | 49 | 1009.6 |
| 20260503215323 | 52 | 226 | 0.0 | 5.0 | 0.00 | 0.00 | 0.00 | 49 | 1009.6 |
| 20260503214822 | 52 | 281 | 0.0 | 0.0 | 0.00 | 0.00 | 0.00 | 48 | 1009.6 |
| 20260503214319 | 52 | 245 | 0.0 | 0.0 | 0.00 | 0.00 | 0.00 | 47 | 1009.5 |
| 20260503213838 | 53 | 249 | 0.0 | 0.0 | 0.00 | 0.00 | 0.00 | 46 | 1009.5 |
| 20260503213317 | 53 | 260 | 0.0 | 6.0 | 0.00 | 0.00 | 0.00 | 46 | 1009.3 |
| 20260503212815 | 53 | 237 | 0.0 | 7.0 | 0.00 | 0.00 | 0.00 | 47 | 1009.4 |
| 20260503212314 | 53 | 181 | 0.0 | 4.0 | 0.00 | 0.00 | 0.00 | 45 | 1009.2 |
| 20260503211813 | 53 | 203 | 0.0 | 4.0 | 0.00 | 0.00 | 0.00 | 45 | 1009.2 |
| 20260503211332 | 53 | 243 | 0.0 | 4.0 | 0.00 | 0.00 | 0.00 | 44 | 1009.1 |
| 20260503210831 | 53 | 316 | 0.0 | 9.0 | 0.00 | 0.00 | 0.00 | 45 | 1009.1 |
| 20260503210330 | 53 | 237 | 2.0 | 10.0 | 0.00 | 0.00 | 0.00 | 45 | 1009.1 |
| 20260503205830 | 52 | 239 | 1.0 | 5.0 | 0.00 | 0.00 | 0.00 | 44 | 1009.1 |
| 20260503205327 | 52 | 270 | 0.0 | 1.0 | 0.00 | 0.00 | 0.00 | 43 | 1009.1 |
| 20260503204847 | 52 | 254 | 0.0 | 4.0 | 0.00 | 0.00 | 0.00 | 43 | 1009.1 |
| 20260503204325 | 53 | 297 | 0.0 | 4.0 | 0.00 | 0.00 | 0.00 | 42 | 1009.1 |
| 20260503203842 | 53 | 322 | 0.0 | 0.0 | 0.00 | 0.00 | 0.00 | 43 | 1009.2 |
| 20260503203342 | 53 | 240 | 0.0 | 6.0 | 0.00 | 0.00 | 0.00 | 42 | 1009.2 |
| 20260503202820 | 53 | 345 | 0.0 | 8.0 | 0.00 | 0.00 | 0.00 | 41 | 1009.2 |
| 20260503202318 | 53 | 268 | 1.0 | 8.0 | 0.00 | 0.00 | 0.00 | 40 | 1009.2 |
| 20260503201818 | 54 | 287 | 0.0 | 5.0 | 0.00 | 0.00 | 0.00 | 40 | 1009.2 |
| 20260503201335 | 54 | 293 | 0.0 | 5.0 | 0.00 | 0.00 | 0.00 | 39 | 1009.2 |
| 20260503200853 | 53 | 248 | 0.0 | 4.0 | 0.00 | 0.00 | 0.00 | 40 | 1009.3 |
| 20260503200352 | 54 | 226 | 0.0 | 4.0 | 0.00 | 0.00 | 0.00 | 37 | 1009.2 |
| 20260503195829 | 54 | 284 | 0.0 | 9.0 | 0.00 | 0.00 | 0.00 | 38 | 1009.2 |
| 20260503195348 | 54 | 208 | 1.0 | 9.0 | 0.00 | 0.00 | 0.00 | 36 | 1009.3 |
| 20260503194826 | 55 | 226 | 0.0 | 5.0 | 0.00 | 0.00 | 0.00 | 35 | 1009.3 |
| 20260503194324 | 55 | 251 | 0.0 | 5.0 | 0.00 | 0.00 | 0.00 | 35 | 1009.5 |
| 20260503193843 | 54 | 291 | 0.0 | 9.0 | 0.00 | 0.00 | 0.00 | 35 | 1009.6 |
| 20260503193322 | 54 | 279 | 0.0 | 9.0 | 0.00 | 0.00 | 0.00 | 35 | 1009.8 |
| 20260503192819 | 55 | 276 | 0.0 | 0.0 | 0.00 | 0.00 | 0.00 | 36 | 1009.7 |
| 20260503192318 | 54 | 359 | 0.0 | 6.0 | 0.00 | 0.00 | 0.00 | 36 | 1009.7 |
| 20260503191816 | 55 | 332 | 0.0 | 6.0 | 0.00 | 0.00 | 0.00 | 34 | 1009.7 |
| 20260503191314 | 54 | 191 | 0.0 | 12.0 | 0.00 | 0.00 | 0.00 | 37 | 1009.8 |
| 20260503190813 | 54 | 228 | 0.0 | 12.0 | 0.00 | 0.00 | 0.00 | 35 | 1009.8 |
| 20260503190333 | 54 | 262 | 0.0 | 4.0 | 0.00 | 0.00 | 0.00 | 35 | 1009.9 |
| 20260503185829 | 54 | 326 | 0.0 | 4.0 | 0.00 | 0.00 | 0.00 | 37 | 1010.1 |
| 20260503185329 | 53 | 226 | 0.0 | 8.0 | 0.00 | 0.00 | 0.00 | 36 | 1010.1 |
| 20260503184827 | 54 | 233 | 0.0 | 0.0 | 0.00 | 0.00 | 0.00 | 39 | 1010.2 |
| 20260503184324 | 53 | 4 | 0.0 | 2.0 | 0.00 | 0.00 | 0.00 | 38 | 1010.2 |
| 20260503183823 | 53 | 322 | 0.0 | 0.0 | 0.00 | 0.00 | 0.00 | 39 | 1010.2 |
| 20260503183322 | 53 | 237 | 0.0 | 3.0 | 0.00 | 0.00 | 0.00 | 37 | 1010.3 |
| 20260503182820 | 52 | 270 | 0.0 | 0.0 | 0.00 | 0.00 | 0.00 | 38 | 1010.3 |
| 20260503182319 | 51 | 259 | 0.0 | 3.0 | 0.00 | 0.00 | 0.00 | 40 | 1010.3 |
| 20260503181832 | 50 | 323 | 0.0 | 9.0 | 0.00 | 0.00 | 0.00 | 40 | 1010.5 |
| 20260503181352 | 50 | 243 | 0.0 | 3.0 | 0.00 | 0.00 | 0.00 | 39 | 1010.4 |
| 20260503180849 | 50 | 305 | 0.0 | 8.0 | 0.00 | 0.00 | 0.00 | 40 | 1010.5 |
| 20260503180348 | 51 | 27 | 0.0 | 8.0 | 0.00 | 0.00 | 0.00 | 39 | 1010.6 |
| 20260503175825 | 53 | 36 | 0.0 | 2.0 | 0.00 | 0.00 | 0.00 | 38 | 1010.6 |
| 20260503175343 | 53 | 214 | 0.0 | 2.0 | 0.00 | 0.00 | 0.00 | 38 | 1010.6 |
| 20260503174819 | 52 | 268 | 0.0 | 5.0 | 0.00 | 0.00 | 0.00 | 42 | 1010.6 |
| 20260503174317 | 52 | 305 | 0.0 | 2.0 | 0.00 | 0.00 | 0.00 | 40 | 1010.6 |
| 20260503173815 | 51 | 260 | 0.0 | 0.0 | 0.00 | 0.00 | 0.00 | 42 | 1010.8 |
| 20260503173313 | 50 | 186 | 0.0 | 0.0 | 0.00 | 0.00 | 0.00 | 40 | 1010.7 |
| 20260503172831 | 49 | 297 | 0.0 | 0.0 | 0.00 | 0.01 | 0.00 | 43 | 1010.8 |
| 20260503172328 | 49 | 288 | 0.0 | 4.0 | 0.00 | 0.01 | 0.00 | 41 | 1010.9 |
| 20260503171826 | 49 | 188 | 0.0 | 4.0 | 0.00 | 0.01 | 0.00 | 43 | 1011.0 |
| 20260503171345 | 49 | 245 | 0.0 | 0.0 | 0.00 | 0.01 | 0.00 | 42 | 1010.9 |
| 20260503170822 | 49 | 313 | 0.0 | 0.0 | 0.00 | 0.01 | 0.00 | 40 | 1011.0 |
| 20260503170319 | 49 | 45 | 0.0 | 2.0 | 0.00 | 0.01 | 0.00 | 43 | 1011.0 |
| 20260503150829 | 43 | 305 | 0.0 | 0.0 | 0.00 | 0.01 | 0.00 | 56 | 1012.2 |
| 20260503150330 | 42 | 313 | 0.0 | 3.0 | 0.00 | 0.01 | 0.00 | 56 | 1012.2 |
| 20260503131336 | 43 | 12 | 0.0 | 1.0 | 0.00 | 0.01 | 0.00 | 61 | 1012.1 |
| 20260503130814 | 44 | 306 | 0.0 | 1.0 | 0.00 | 0.01 | 0.00 | 64 | 1012.1 |
| 20260503130314 | 43 | 25 | 0.0 | 0.0 | 0.00 | 0.01 | 0.00 | 65 | 1012.1 |
| 20260503110817 | 34 | 187 | 0.0 | 0.0 | 0.00 | 0.01 | 0.00 | 93 | 1011.9 |
| 20260503110337 | 34 | 198 | 0.0 | 0.0 | 0.00 | 0.01 | 0.00 | 93 | 1011.9 |